[[{"header":{"parameterUnit":"m.s-1","parameterCategory":2,"la1":30.2991,"la2":30.254,"lo1":-89.0895,"lo2":-89.0444,"dy":0.0017,"dx":0.0017,"nx":28,"ny":28,"refTime":"2023-08-03T21:00:00:Z","depth":"0","parameterNumber":2,"parameterNumberName":"U-component_of_CURRENTS"},"data":[0,0,0,0,0,0,0,0,0,0,0,0,0,0,0,0,0,0,0,0,0,0,0,0,0,0,0,0,0,0,0,0,0,0,0,0,0,0,0,0,0,0,0,0,0,0,0,0,0,0,0,0,0,0,0,0,0,0,0.3417,0.3416,0,0.3391,0.3391,0.3391,0.331,0.3309,0.3307,0.3305,0.3255,0.3255,0.3256,0,0,0,0,0,0,0,0,0,0,0,0,0,0.3393,0.3394,0.3417,0.3416,0.3416,0.3391,0.3391,0.3391,0.3311,0.3308,0.3306,0.3304,0.3255,0.3255,0.3256,0,0,0,0,0,0,0,0,0,0,0,0,0,0.3389,0.3394,0.3417,0.3373,0.3369,0.3391,0.3391,0.339,0.3311,0.3308,0.3306,0.3303,0.3255,0.3255,0.3256,0.3313,0,0,0.3257,0.3258,0,0,0,0,0,0,0,0,0.3389,0.339,0.338,0.3376,0.3371,0.3351,0.3364,0.3363,0.3312,0.3333,0.3305,0.3302,0.3287,0.3285,0.3286,0.3311,0.3308,0.3257,0.3258,0.3258,0.3258,0,0,0,0,0,0,0,0.339,0.3391,0.3407,0.338,0.3375,0.3353,0.335,0.3364,0.3325,0.3331,0.3325,0.3323,0.3284,0.3286,0.3284,0.3308,0.3257,0.3258,0.3258,0.3258,0.3338,0.3339,0,0,0,0,0,0,0.3396,0.3391,0.3408,0.3406,0.3374,0.3356,0.3352,0.336,0.3325,0.3318,0.3325,0.3319,0.3286,0.3284,0.3282,0.3303,0.3258,0.3258,0.3259,0.3336,0.3338,0.334,0,0,0,0,0,0,0.3396,0.3398,0.3409,0.3397,0.3396,0.3359,0.3369,0.3361,0.3337,0.3321,0.3312,0.3305,0.3284,0.3282,0.3307,0.3302,0.3259,0.3259,0.3334,0.3336,0.3339,0.3373,0,0,0,0,0,0,0.3396,0.3399,0.341,0.3398,0.3397,0.34,0.3372,0.3363,0.3341,0.3332,0.3302,0.3296,0.3282,0.3307,0.3308,0.3301,0.3259,0.3331,0.3335,0.3338,0.3369,0.3376,0.3382,0,0,0,0,0,0.3395,0.3383,0.3411,0.3413,0.3414,0.34,0.3397,0.3362,0.3342,0.333,0.334,0.3295,0.3327,0.3311,0.3311,0.3304,0.333,0.3334,0.3338,0.3366,0.3375,0.3382,0,0,0,0,0,0,0.3348,0.3375,0.3403,0.3397,0.3404,0.3385,0.3365,0.336,0.3358,0.3345,0.3335,0.3331,0.335,0.3338,0.3319,0.334,0.3315,0.3319,0.3337,0.3345,0.3351,0.3347,0.326,0,0,0,0,0,0.3362,0.3378,0.3395,0.3394,0.3394,0.3392,0.3383,0.3365,0.3362,0.3354,0.3351,0.3353,0.3375,0.3367,0.3381,0.34,0.3406,0.3393,0.34,0.3405,0.3405,0.3449,0.3459,0.3353,0.3353,0.3353,0,0,0.3339,0.3363,0.3367,0.339,0.3389,0.3385,0.3376,0.3351,0.3348,0.3355,0.3352,0.3381,0.3392,0.3415,0.3418,0.3394,0.3439,0.341,0.3414,0.3411,0.3455,0.3465,0.3474,0.3356,0.3355,0.3355,0,0,0.3308,0.3331,0.3342,0.3347,0.3357,0.336,0.3353,0.3349,0.3343,0.3372,0.3382,0.3429,0.3431,0.3458,0.3468,0.3525,0.3483,0.3503,0.3514,0.3558,0.3566,0.3574,0.359,0.3599,0.3491,0.3491,0.3491,0,0.3274,0.3315,0.3335,0.3341,0.3338,0.3348,0.334,0.3343,0.3353,0.337,0.3364,0.3442,0.3459,0.3507,0.353,0.3537,0.3538,0.3479,0.3565,0.3572,0.358,0.3594,0.3604,0.3493,0.3493,0.3493,0.3492,0,0.3274,0.3291,0.328,0.3316,0.3309,0.3297,0.3309,0.3317,0.3329,0.335,0.3407,0.3468,0.3509,0.3525,0.3545,0.3602,0.3579,0.3578,0.3539,0.3592,0.3605,0.3614,0.3496,0.3495,0.3495,0.3494,0,0,0.3209,0.3275,0.3269,0.3286,0.3295,0.328,0.3288,0.3313,0.3329,0.3366,0.3407,0.3486,0.3526,0.3545,0.3582,0.3626,0.3699,0.3617,0.3618,0.3622,0.3766,0.3587,0.3579,0.37,0.3701,0.3703,0.3751,0,0.3202,0.3234,0.3261,0.3251,0.3256,0.3265,0.3276,0.3291,0.3329,0.3374,0.3444,0.3501,0.3524,0.3566,0.3616,0.3694,0.3724,0.3684,0.3723,0.3724,0.355,0.3584,0.3424,0.3438,0.376,0.3762,0.3763,0,0.3199,0.322,0.3235,0.325,0.3248,0.3239,0.326,0.3272,0.3335,0.3372,0.3438,0.3492,0.3589,0.36,0.3722,0.3687,0.3725,0.3771,0.3773,0.3597,0.3561,0.3441,0.3443,0.3382,0.3776,0.3775,0.3774,0,0.3181,0.3192,0.3214,0.3211,0.3229,0.3225,0.323,0.3272,0.3281,0.3377,0.341,0.3517,0.3578,0.3656,0.3744,0.3738,0.3857,0.3861,0.3728,0.3715,0.3582,0.3552,0.3517,0.3929,0.3929,0.3928,0.3928,0,0.3188,0.3177,0.3201,0.3206,0.318,0.3199,0.3191,0.3229,0.3279,0.3289,0.3405,0.3442,0.3594,0.367,0.3745,0.3748,0.3853,0.3728,0.3715,0.3585,0.3557,0.3498,0.3534,0.393,0.393,0.3929,0.3929,0,0.3161,0.3202,0.3185,0.3193,0.3179,0.3149,0.3127,0.3126,0.3204,0.3226,0.3255,0.3393,0.349,0.3609,0.3749,0.3718,0.3649,0.3741,0.3557,0.3518,0.3273,0.3318,0.3031,0.2982,0.3587,0.3583,0.3579,0,0.3156,0.316,0.3144,0.3108,0.3101,0.3057,0.3025,0.3074,0.3066,0.3174,0.3175,0.3299,0.334,0.3461,0.3466,0.3516,0.3505,0.3369,0.3319,0.322,0.3266,0.3071,0.3041,0.3179,0.3172,0.3167,0.3162,0,0.3097,0.3099,0.3096,0.3029,0.2979,0.2921,0.2887,0.287,0.2926,0.295,0.2999,0.3057,0.3147,0.3133,0.3177,0.318,0.3168,0.325,0.3228,0.299,0.2702,0.2661,0.3183,0.3115,0.312,0.3123,0.3126,0.3128,0.3021,0.2996,0.299,0.2906,0.285,0.2778,0.2701,0.2683,0.2649,0.2638,0.2771,0.2759,0.2858,0.2876,0.2862,0.2722,0.2774,0.2683,0.2765,0.2584,0.2452,0.2823,0.2678,0.268,0.2682,0.2683,0.2685,0,0.289,0.2896,0.2846,0.2756,0.265,0.2664,0.2584,0.2489,0.2396,0.2402,0.2401,0.2394,0.238,0.2443,0.2393,0.2304,0.2154,0.2282,0.2064,0.2088,0.2503,0.2402,0.2091,0.2091,0.2091,0.2091,0.2091,0.2091,0.283,0.2771,0.2756,0.2564,0.2496,0.2327,0.2265,0.2164,0.211,0.1976,0.191,0.1962,0.2123,0.2165,0.2099,0.2041,0.1947,0.1744,0.1852,0.2269,0.2315,0.2358,0.2268,0.1934,0.1934,0.1255,0.1251,0.1249]},{"header":{"parameterUnit":"m.s-1","parameterCategory":2,"la1":30.2991,"la2":30.254,"lo1":-89.0895,"lo2":-89.0444,"dy":0.0017,"dx":0.0017,"nx":28,"ny":28,"refTime":"2023-08-03T21:00:00:Z","depth":"0","parameterNumber":3,"parameterNumberName":"V-component_of_CURRENTS"},"data":[0,0,0,0,0,0,0,0,0,0,0,0,0,0,0,0,0,0,0,0,0,0,0,0,0,0,0,0,0,0,0,0,0,0,0,0,0,0,0,0,0,0,0,0,0,0,0,0,0,0,0,0,0,0,0,0,0,0,0.0836,0.0835,0,0.0774,0.0774,0.0773,0.0672,0.067,0.0668,0.0666,0.0614,0.0615,0.0615,0,0,0,0,0,0,0,0,0,0,0,0,0,0.0899,0.0899,0.0836,0.0835,0.0834,0.0775,0.0774,0.0773,0.0673,0.067,0.0668,0.0665,0.0614,0.0615,0.0615,0,0,0,0,0,0,0,0,0,0,0,0,0,0.0861,0.0899,0.0837,0.0775,0.0769,0.0775,0.0774,0.0773,0.0673,0.067,0.0667,0.0664,0.0614,0.0615,0.0615,0.0683,0,0,0.0618,0.0618,0,0,0,0,0,0,0,0,0.0863,0.0859,0.0785,0.0779,0.0772,0.0726,0.0777,0.0743,0.0674,0.0712,0.0666,0.0663,0.0653,0.0651,0.0649,0.0681,0.0679,0.0618,0.0619,0.0619,0.0619,0,0,0,0,0,0,0,0.0866,0.0861,0.0814,0.0784,0.0776,0.0761,0.0752,0.077,0.0703,0.0709,0.0701,0.0691,0.0649,0.0649,0.0647,0.0678,0.0618,0.0619,0.0619,0.062,0.0719,0.0721,0,0,0,0,0,0,0.087,0.0864,0.0816,0.0812,0.0808,0.0762,0.0752,0.0746,0.0703,0.0692,0.0693,0.0686,0.0649,0.0647,0.0645,0.0696,0.0619,0.062,0.062,0.0717,0.072,0.0722,0,0,0,0,0,0,0.0872,0.0867,0.0819,0.0834,0.0826,0.0764,0.0758,0.0746,0.0721,0.069,0.068,0.0677,0.0646,0.0644,0.0673,0.0694,0.062,0.0621,0.0715,0.0718,0.0721,0.0816,0,0,0,0,0,0,0.0874,0.0868,0.0876,0.0835,0.0826,0.0816,0.076,0.0747,0.072,0.071,0.0674,0.0667,0.0644,0.0672,0.0674,0.0694,0.0622,0.0712,0.0716,0.072,0.081,0.0822,0.0832,0,0,0,0,0,0.0877,0.0889,0.0877,0.0871,0.0835,0.0817,0.0812,0.0758,0.0723,0.0723,0.0715,0.0666,0.0697,0.0676,0.0677,0.0697,0.071,0.0715,0.072,0.0805,0.0819,0.0831,0,0,0,0,0,0,0.0926,0.0879,0.0864,0.0864,0.0842,0.0798,0.0794,0.0762,0.0756,0.0744,0.071,0.0706,0.0737,0.0715,0.0692,0.0739,0.069,0.0695,0.0754,0.0767,0.0778,0.0793,0.0622,0,0,0,0,0,0.0944,0.0938,0.0897,0.0903,0.0888,0.0846,0.0834,0.0799,0.0782,0.0771,0.0754,0.0746,0.0766,0.0762,0.0773,0.081,0.0775,0.0819,0.083,0.0839,0.0854,0.0843,0.0854,0.0738,0.0738,0.0738,0,0,0.0963,0.0942,0.0937,0.0914,0.089,0.0882,0.083,0.081,0.0815,0.0775,0.0787,0.0791,0.0788,0.0827,0.0836,0.0804,0.0852,0.0846,0.0854,0.0863,0.0849,0.086,0.087,0.0741,0.0741,0.074,0,0,0.0992,0.0981,0.0976,0.0959,0.0926,0.0911,0.0904,0.0865,0.0855,0.0883,0.0859,0.0887,0.0894,0.0907,0.0913,0.0997,0.0918,0.0982,0.1041,0.1031,0.104,0.1048,0.1002,0.1005,0.0978,0.0978,0.0978,0,0.1004,0.1003,0.0977,0.0966,0.0955,0.0923,0.0917,0.0922,0.0904,0.0923,0.0893,0.0946,0.0939,0.1002,0.1028,0.1021,0.0984,0.0989,0.1044,0.1051,0.1057,0.1008,0.101,0.0983,0.0982,0.0982,0.0981,0,0.1025,0.1019,0.1016,0.0996,0.0994,0.0984,0.0977,0.0996,0.0989,0.0993,0.105,0.1063,0.1087,0.1093,0.1088,0.1138,0.1087,0.1064,0.1007,0.1074,0.1019,0.1019,0.099,0.0988,0.0987,0.0986,0,0,0.1035,0.1025,0.1021,0.1018,0.1001,0.1001,0.1039,0.1066,0.1104,0.1113,0.1159,0.1213,0.1212,0.1221,0.1217,0.1218,0.1229,0.1162,0.1159,0.111,0.1174,0.1154,0.1151,0.1206,0.1207,0.1208,0.111,0,0.1043,0.1036,0.1037,0.1047,0.1036,0.1043,0.1092,0.1124,0.1156,0.1204,0.1233,0.1279,0.1261,0.1279,0.1285,0.1257,0.1237,0.1256,0.1122,0.1118,0.1087,0.1154,0.1161,0.1077,0.111,0.111,0.111,0,0.105,0.1044,0.1043,0.1069,0.1069,0.109,0.116,0.1198,0.1275,0.1305,0.1355,0.1362,0.1405,0.1361,0.1337,0.1344,0.1268,0.1228,0.1223,0.1175,0.11,0.102,0.1075,0.0992,0.1109,0.1109,0.1109,0,0.1058,0.1052,0.1058,0.1054,0.1082,0.1112,0.1149,0.1227,0.129,0.1365,0.1417,0.1445,0.1468,0.1408,0.1334,0.1329,0.1269,0.1242,0.1144,0.1139,0.1108,0.1099,0.1067,0.1197,0.1197,0.1198,0.1198,0,0.1059,0.1061,0.1062,0.1061,0.1106,0.1122,0.1202,0.126,0.1353,0.1441,0.1465,0.1535,0.1481,0.1442,0.135,0.1256,0.1271,0.1173,0.1131,0.1139,0.1136,0.103,0.1042,0.1194,0.1195,0.1196,0.1196,0,0.1059,0.1056,0.1061,0.1086,0.1105,0.1136,0.123,0.1304,0.1389,0.1501,0.1529,0.1599,0.1571,0.1479,0.1375,0.1285,0.1167,0.1124,0.1125,0.1087,0.0953,0.0972,0.0962,0.0971,0.1028,0.1027,0.1026,0,0.1051,0.1045,0.1074,0.1095,0.1105,0.1157,0.1221,0.1315,0.1395,0.1549,0.1608,0.1627,0.1664,0.151,0.1339,0.116,0.1133,0.1043,0.106,0.0967,0.0956,0.0979,0.099,0.1034,0.1033,0.1033,0.1032,0,0.1019,0.1031,0.1054,0.1106,0.1154,0.1226,0.1312,0.1381,0.1507,0.1602,0.1718,0.1759,0.165,0.1531,0.1304,0.1171,0.1064,0.1029,0.0943,0.0989,0.1004,0.0983,0.1044,0.1029,0.1029,0.1029,0.1029,0.103,0.1001,0.1021,0.1061,0.1125,0.119,0.1296,0.1363,0.1464,0.1589,0.1733,0.1765,0.1824,0.1688,0.1415,0.1232,0.0934,0.102,0.0872,0.0904,0.0933,0.0965,0.1011,0.095,0.095,0.095,0.095,0.095,0,0.0956,0.1017,0.1078,0.1166,0.1248,0.1293,0.1431,0.1503,0.1629,0.1746,0.1825,0.1802,0.1583,0.135,0.1008,0.0841,0.0794,0.076,0.0788,0.0807,0.083,0.0851,0.0755,0.0755,0.0755,0.0755,0.0755,0.0755,0.0941,0.0995,0.1058,0.1191,0.1267,0.1376,0.1456,0.1567,0.1663,0.1792,0.1848,0.1938,0.189,0.1252,0.0861,0.0743,0.0698,0.0688,0.0678,0.0662,0.0673,0.0685,0.0701,0.0576,0.0576,0.0646,0.0647,0.0647]}],[{"header":{"parameterUnit":"m.s-1","parameterCategory":2,"la1":30.2991,"la2":30.254,"lo1":-89.0895,"lo2":-89.0444,"dy":0.0017,"dx":0.0017,"nx":28,"ny":28,"refTime":"2023-08-03T21:00:00:Z","depth":"2","parameterNumber":2,"parameterNumberName":"U-component_of_CURRENTS"},"data":[0,0,0,0,0,0,0,0,0,0,0,0,0,0,0,0,0,0,0,0,0,0,0,0,0,0,0,0,0,0,0,0,0,0,0,0,0,0,0,0,0,0,0,0,0,0,0,0,0,0,0,0,0,0,0,0,0,0,0.3023,0.3021,0,0.3097,0.3101,0.3104,0.3096,0.3092,0.3089,0.3085,0.2974,0.2975,0.2975,0,0,0,0,0,0,0,0,0,0,0,0,0,0.311,0.3109,0.3023,0.3021,0.302,0.3097,0.3101,0.3104,0.3097,0.3092,0.3088,0.3083,0.2974,0.2974,0.2975,0,0,0,0,0,0,0,0,0,0,0,0,0,0.3143,0.3109,0.3023,0.3005,0.3002,0.3096,0.3101,0.3105,0.3098,0.3092,0.3086,0.3081,0.2974,0.2974,0.2975,0.3091,0,0,0.2977,0.2978,0,0,0,0,0,0,0,0,0.3141,0.3143,0.3009,0.3006,0.3002,0.3057,0.3089,0.3082,0.3099,0.3091,0.3085,0.3079,0.2971,0.2972,0.304,0.3086,0.3081,0.2977,0.2978,0.2978,0.2978,0,0,0,0,0,0,0,0.3138,0.3141,0.308,0.3007,0.3003,0.3071,0.3071,0.3092,0.3079,0.3091,0.3083,0.305,0.2971,0.304,0.3036,0.3079,0.2977,0.2978,0.2979,0.2979,0.3036,0.3037,0,0,0,0,0,0,0.3067,0.3138,0.3077,0.308,0.3028,0.3071,0.3072,0.3068,0.3082,0.3073,0.3054,0.3048,0.3041,0.3035,0.3031,0.3038,0.2978,0.2979,0.2979,0.3035,0.3037,0.3038,0,0,0,0,0,0,0.307,0.3063,0.3074,0.3087,0.3089,0.3071,0.307,0.3072,0.3099,0.3051,0.3043,0.3069,0.3037,0.303,0.3043,0.3037,0.2979,0.298,0.3034,0.3036,0.3037,0.3133,0,0,0,0,0,0,0.3073,0.3065,0.3059,0.3083,0.3084,0.307,0.3072,0.3076,0.3075,0.3069,0.3062,0.3049,0.3032,0.3043,0.3044,0.3037,0.2981,0.3033,0.3035,0.3037,0.3128,0.3138,0.3146,0,0,0,0,0,0.3077,0.3025,0.306,0.3051,0.3071,0.3066,0.3078,0.3066,0.308,0.3081,0.311,0.3047,0.3053,0.3047,0.3047,0.304,0.3032,0.3034,0.3037,0.3125,0.3136,0.3145,0,0,0,0,0,0,0.2987,0.3019,0.3056,0.3001,0.302,0.3052,0.3053,0.3069,0.3114,0.3115,0.3099,0.309,0.3084,0.3065,0.3058,0.3059,0.3018,0.3021,0.3084,0.3095,0.3103,0.3094,0.2981,0,0,0,0,0,0.2988,0.2993,0.3021,0.2971,0.3007,0.3059,0.3065,0.3063,0.3084,0.3101,0.3095,0.3099,0.3114,0.3103,0.31,0.3134,0.3108,0.3116,0.3125,0.3132,0.3125,0.3119,0.3127,0.3046,0.3046,0.3046,0,0,0.2953,0.2943,0.2958,0.2961,0.3014,0.3034,0.3055,0.3053,0.3068,0.3081,0.3114,0.3127,0.3129,0.3154,0.3146,0.3127,0.3144,0.3135,0.3142,0.313,0.3122,0.313,0.3137,0.3047,0.3047,0.3047,0,0,0.2848,0.289,0.2891,0.2915,0.2939,0.2987,0.2979,0.3033,0.3075,0.3121,0.3132,0.3164,0.3169,0.3192,0.3203,0.3264,0.3189,0.3227,0.3269,0.3265,0.3272,0.3277,0.3269,0.3273,0.3233,0.3233,0.3234,0,0.2824,0.2802,0.2875,0.2864,0.2881,0.2962,0.2972,0.304,0.307,0.3116,0.3107,0.3173,0.3196,0.3239,0.3281,0.3282,0.3256,0.3236,0.3277,0.3282,0.3286,0.3276,0.3279,0.3238,0.3238,0.3237,0.3237,0,0.2718,0.2734,0.2728,0.2786,0.281,0.2822,0.2917,0.2967,0.3036,0.3088,0.3145,0.321,0.3235,0.3256,0.331,0.3345,0.331,0.3289,0.3253,0.33,0.3286,0.3288,0.3245,0.3244,0.3242,0.3241,0,0,0.2649,0.2677,0.2699,0.2732,0.2787,0.2808,0.2868,0.2966,0.3027,0.3074,0.314,0.3231,0.3265,0.3283,0.3327,0.3363,0.3428,0.3356,0.3353,0.3351,0.3404,0.3157,0.3134,0.3403,0.3404,0.3404,0.339,0,0.2597,0.2603,0.2608,0.2638,0.2687,0.2768,0.2825,0.2906,0.3002,0.3086,0.3177,0.3251,0.3273,0.3324,0.3353,0.3422,0.3432,0.3433,0.3355,0.3352,0.3129,0.3127,0.291,0.2857,0.3391,0.3391,0.3391,0,0.2519,0.255,0.2579,0.2647,0.2684,0.2693,0.2837,0.2888,0.3022,0.3092,0.3147,0.322,0.3322,0.3332,0.3387,0.3378,0.3395,0.3425,0.3423,0.3151,0.3105,0.2892,0.2839,0.3392,0.3392,0.3392,0.3392,0,0.2489,0.2535,0.2573,0.2589,0.2664,0.2703,0.2777,0.2898,0.2958,0.3111,0.3159,0.3234,0.331,0.332,0.3411,0.3402,0.3448,0.3431,0.3198,0.3182,0.2957,0.2917,0.3427,0.3427,0.3427,0.3427,0.3427,0,0.2408,0.2484,0.2573,0.2589,0.2632,0.2714,0.2772,0.2854,0.2966,0.3022,0.3163,0.3199,0.3316,0.3367,0.3396,0.3287,0.3416,0.3184,0.3146,0.2982,0.2946,0.3374,0.3368,0.3426,0.3426,0.3427,0.3427,0,0.2361,0.2432,0.2466,0.2564,0.2591,0.2633,0.2723,0.2796,0.2914,0.2985,0.3039,0.319,0.3209,0.3274,0.3332,0.3248,0.3208,0.3139,0.2934,0.2866,0.2945,0.2945,0.2829,0.2819,0.2812,0.2805,0.28,0,0.2352,0.2362,0.2412,0.2414,0.245,0.253,0.2596,0.2737,0.2798,0.2949,0.2982,0.3061,0.3031,0.299,0.2908,0.2812,0.2987,0.2553,0.2462,0.29,0.2878,0.289,0.29,0.2244,0.2234,0.2226,0.222,0,0.2314,0.2323,0.2335,0.2332,0.2378,0.2409,0.2521,0.2537,0.2712,0.2765,0.282,0.2813,0.2731,0.251,0.2387,0.2316,0.2536,0.2373,0.2912,0.2387,0.2334,0.2317,0.2349,0.215,0.2157,0.2162,0.2166,0.2169,0.2274,0.2259,0.2249,0.2228,0.23,0.2322,0.2317,0.2402,0.2444,0.2447,0.2541,0.241,0.2322,0.1933,0.187,0.1834,0.1952,0.1886,0.1918,0.1957,0.1849,0.178,0.1475,0.1478,0.1481,0.1483,0.1485,0,0.2208,0.2199,0.2163,0.2153,0.2205,0.2259,0.2294,0.2246,0.2228,0.216,0.2095,0.1773,0.1544,0.1518,0.1326,0.1253,0.1349,0.1218,0.1368,0.1431,0.1488,0.1369,0.0862,0.0861,0.086,0.086,0,0,0.2173,0.2119,0.2084,0.2079,0.2103,0.2116,0.2104,0.1987,0.1889,0.1661,0.1506,0.141,0.1409,0.1119,0.1044,0.0954,0.1214,0.0909,0.1389,0.1627,0.1685,0.1822,0.1695,0,0,0,0,0]},{"header":{"parameterUnit":"m.s-1","parameterCategory":2,"la1":30.2991,"la2":30.254,"lo1":-89.0895,"lo2":-89.0444,"dy":0.0017,"dx":0.0017,"nx":28,"ny":28,"refTime":"2023-08-03T21:00:00:Z","depth":"2","parameterNumber":3,"parameterNumberName":"V-component_of_CURRENTS"},"data":[0,0,0,0,0,0,0,0,0,0,0,0,0,0,0,0,0,0,0,0,0,0,0,0,0,0,0,0,0,0,0,0,0,0,0,0,0,0,0,0,0,0,0,0,0,0,0,0,0,0,0,0,0,0,0,0,0,0,0.0483,0.0482,0,0.0512,0.0514,0.0516,0.0498,0.0496,0.0493,0.049,0.0406,0.0407,0.0407,0,0,0,0,0,0,0,0,0,0,0,0,0,0.0609,0.0608,0.0483,0.0482,0.048,0.0512,0.0514,0.0516,0.0499,0.0495,0.0492,0.0489,0.0406,0.0407,0.0407,0,0,0,0,0,0,0,0,0,0,0,0,0,0.0607,0.0607,0.0484,0.046,0.0457,0.0511,0.0514,0.0517,0.0499,0.0495,0.0491,0.0488,0.0406,0.0407,0.0407,0.0491,0,0,0.0408,0.0409,0,0,0,0,0,0,0,0,0.0607,0.0605,0.0465,0.0462,0.0458,0.0479,0.0527,0.0496,0.0501,0.0505,0.049,0.0486,0.041,0.041,0.0455,0.0487,0.0484,0.0408,0.0409,0.0409,0.0409,0,0,0,0,0,0,0,0.0607,0.0605,0.0516,0.0463,0.0459,0.0514,0.051,0.0524,0.0494,0.0504,0.0498,0.047,0.0409,0.0455,0.0452,0.0483,0.0408,0.0409,0.0409,0.0409,0.0465,0.0467,0,0,0,0,0,0,0.0556,0.0604,0.0514,0.0514,0.0501,0.0512,0.0509,0.0493,0.0496,0.0487,0.0473,0.0468,0.0456,0.0452,0.0449,0.0485,0.0409,0.0409,0.041,0.0464,0.0466,0.0467,0,0,0,0,0,0,0.0559,0.0549,0.0513,0.0543,0.0539,0.0511,0.0496,0.0496,0.0513,0.047,0.0462,0.0483,0.0453,0.0448,0.0466,0.0482,0.041,0.041,0.0463,0.0465,0.0466,0.0595,0,0,0,0,0,0,0.0564,0.0551,0.0548,0.0539,0.0534,0.0509,0.0498,0.0498,0.0492,0.0487,0.0477,0.0467,0.045,0.0466,0.0466,0.0481,0.041,0.0461,0.0464,0.0466,0.0589,0.0601,0.0611,0,0,0,0,0,0.0568,0.0548,0.0549,0.0537,0.0524,0.0507,0.0513,0.0494,0.0496,0.0501,0.052,0.0466,0.0478,0.047,0.0469,0.0484,0.046,0.0463,0.0466,0.0584,0.0599,0.0611,0,0,0,0,0,0,0.0544,0.0543,0.0543,0.0508,0.0495,0.0494,0.0511,0.0498,0.053,0.0538,0.0511,0.0504,0.0513,0.049,0.048,0.0503,0.0449,0.0452,0.0539,0.0552,0.0563,0.058,0.0411,0,0,0,0,0,0.0552,0.0566,0.0543,0.051,0.053,0.0535,0.0536,0.0518,0.0525,0.0536,0.0523,0.0523,0.0537,0.0535,0.053,0.057,0.052,0.0568,0.0579,0.0589,0.06,0.0557,0.0565,0.0476,0.0476,0.0476,0,0,0.0525,0.0523,0.0526,0.0513,0.0538,0.0549,0.0532,0.053,0.0548,0.0523,0.0567,0.0559,0.0554,0.059,0.059,0.0567,0.0586,0.0592,0.0601,0.0607,0.0561,0.0569,0.0577,0.0478,0.0478,0.0477,0,0,0.0484,0.0504,0.0522,0.053,0.0537,0.0554,0.0546,0.0556,0.0589,0.0624,0.0614,0.0631,0.0637,0.0653,0.0662,0.0734,0.0641,0.0704,0.0786,0.0745,0.0752,0.0757,0.0701,0.0701,0.0716,0.0717,0.0717,0,0.0497,0.0467,0.0512,0.0526,0.0534,0.0554,0.0564,0.0617,0.0614,0.0663,0.0632,0.0669,0.0677,0.0728,0.0776,0.076,0.0708,0.0743,0.076,0.0765,0.0768,0.0709,0.0707,0.0723,0.0723,0.0722,0.0721,0,0.0436,0.0452,0.0467,0.0518,0.0534,0.0544,0.06,0.0643,0.0683,0.0718,0.0766,0.078,0.0788,0.08,0.0836,0.0867,0.0811,0.0775,0.073,0.0785,0.0719,0.0714,0.0733,0.073,0.0728,0.0727,0,0,0.0451,0.0447,0.0473,0.0502,0.054,0.0561,0.0632,0.0714,0.0787,0.0796,0.0863,0.0923,0.0914,0.0924,0.0923,0.0929,0.0949,0.089,0.0884,0.0841,0.0837,0.0799,0.0789,0.0906,0.0906,0.0906,0.078,0,0.0439,0.0457,0.0454,0.0501,0.0534,0.0592,0.0665,0.0741,0.0815,0.0894,0.0935,0.0996,0.0964,0.0989,0.098,0.0974,0.0943,0.0986,0.0784,0.0778,0.0744,0.0785,0.073,0.0613,0.0774,0.0774,0.0773,0,0.0414,0.0437,0.046,0.054,0.0574,0.0603,0.0749,0.0814,0.0945,0.1,0.1026,0.105,0.11,0.1052,0.0985,0.1007,0.0935,0.0901,0.0893,0.0811,0.0733,0.0584,0.0598,0.0764,0.0765,0.0766,0.0766,0,0.0416,0.0473,0.0498,0.0513,0.0585,0.0648,0.0729,0.0855,0.0952,0.1078,0.114,0.1129,0.1164,0.1058,0.1009,0.0997,0.0911,0.0863,0.0727,0.0721,0.0614,0.06,0.0774,0.0774,0.0774,0.0775,0.0775,0,0.039,0.0459,0.0514,0.0528,0.0623,0.0685,0.0816,0.0898,0.1019,0.115,0.1196,0.1247,0.1177,0.1131,0.1018,0.0869,0.0886,0.075,0.0696,0.0657,0.0649,0.073,0.0727,0.077,0.0771,0.0772,0.0773,0,0.0381,0.0406,0.0464,0.0556,0.0605,0.0688,0.0859,0.0979,0.1085,0.1235,0.1288,0.1351,0.1291,0.1169,0.1032,0.0906,0.0761,0.0687,0.0651,0.0596,0.0584,0.0589,0.051,0.0507,0.0506,0.0504,0.0503,0,0.0373,0.0391,0.0478,0.053,0.0578,0.0719,0.0848,0.0993,0.112,0.1294,0.1378,0.1383,0.1365,0.1134,0.0931,0.0674,0.0685,0.0486,0.0463,0.0607,0.0561,0.0569,0.0576,0.0356,0.0353,0.0351,0.035,0,0.0374,0.0408,0.0439,0.0544,0.0667,0.0801,0.0991,0.1077,0.1282,0.1393,0.1506,0.1494,0.1298,0.1026,0.0728,0.0574,0.0528,0.0437,0.0588,0.0449,0.0456,0.0414,0.0426,0.0332,0.0334,0.0335,0.0336,0.0337,0.0376,0.0422,0.0474,0.0582,0.074,0.0909,0.1032,0.1203,0.1373,0.1512,0.1509,0.1444,0.1173,0.0719,0.0523,0.0364,0.0373,0.0272,0.028,0.0289,0.0313,0.0318,0.017,0.0171,0.0172,0.0172,0.0173,0,0.0371,0.0453,0.0537,0.0681,0.0869,0.0947,0.1167,0.1267,0.1449,0.1464,0.148,0.1149,0.0853,0.0604,0.0319,0.0152,0.018,0.0115,0.0149,0.0165,0.0179,0.02,0.0026,0.0026,0.0026,0.0026,0,0,0.0384,0.0446,0.051,0.0778,0.0925,0.1167,0.1283,0.1375,0.1403,0.1361,0.1264,0.1093,0.08,0.0538,0.0306,0.0171,0.0235,0.0168,0.0287,0.0366,0.0384,0.025,0.0297,0,0,0,0,0]}],[{"header":{"parameterUnit":"m.s-1","parameterCategory":2,"la1":30.2991,"la2":30.254,"lo1":-89.0895,"lo2":-89.0444,"dy":0.0017,"dx":0.0017,"nx":28,"ny":28,"refTime":"2023-08-03T21:00:00:Z","depth":"4","parameterNumber":2,"parameterNumberName":"U-component_of_CURRENTS"},"data":[0,0,0,0,0,0,0,0,0,0,0,0,0,0,0,0,0,0,0,0,0,0,0,0,0,0,0,0,0,0,0,0,0,0,0,0,0,0,0,0,0,0,0,0,0,0,0,0,0,0,0,0,0,0,0,0,0,0,-0.0316,-0.0315,0,-0.0238,-0.0237,-0.0236,-0.0092,-0.0088,-0.0085,-0.0082,0.0227,0.0232,0.0238,0,0,0,0,0,0,0,0,0,0,0,0,0,-0.0326,-0.0327,-0.0316,-0.0314,-0.0313,-0.0238,-0.0237,-0.0236,-0.0092,-0.0088,-0.0085,-0.0081,0.0225,0.0232,0.0238,0,0,0,0,0,0,0,0,0,0,0,0,0,-0.0295,-0.0327,-0.0316,-0.023,-0.0221,-0.0238,-0.0237,-0.0236,-0.0093,-0.0088,-0.0084,-0.0079,0.0223,0.0231,0.0239,0.0196,0,0,0.0264,0.0267,0,0,0,0,0,0,0,0,-0.0297,-0.0295,-0.0244,-0.0236,-0.0226,-0.0167,-0.0127,-0.0079,-0.0094,-0.0145,-0.0082,-0.0077,0.0116,0.0133,0.0129,0.0211,0.0224,0.0264,0.0269,0.0273,0.0275,0,0,0,0,0,0,0,-0.03,-0.0298,-0.0288,-0.0243,-0.0232,-0.019,-0.0181,-0.0118,-0.004,-0.014,-0.0129,-0.0117,0.0122,0.0121,0.0139,0.0229,0.0264,0.0271,0.0276,0.028,0.0282,0.0277,0,0,0,0,0,0,-0.0309,-0.0301,-0.029,-0.0285,-0.0247,-0.0194,-0.0184,-0.0193,-0.0045,-0.0019,-0.0121,-0.011,0.0105,0.0129,0.015,0.0206,0.0273,0.028,0.0285,0.0286,0.028,0.0275,0,0,0,0,0,0,-0.031,-0.031,-0.0293,-0.0287,-0.0281,-0.0198,-0.021,-0.0194,-0.014,-0.0032,-0.0001,-0.0076,0.0109,0.0139,0.0117,0.0217,0.0284,0.0291,0.0292,0.0284,0.0278,0.0256,0,0,0,0,0,0,-0.0312,-0.0312,-0.0318,-0.0289,-0.0282,-0.0261,-0.0213,-0.0196,-0.0142,-0.0126,0.0015,0.0045,0.0115,0.0102,0.0124,0.0229,0.0298,0.0298,0.0289,0.028,0.0263,0.0249,0.0238,0,0,0,0,0,-0.0313,-0.0321,-0.032,-0.0317,-0.0295,-0.026,-0.0252,-0.018,-0.0144,-0.0116,-0.013,0.0044,0.0066,0.0101,0.0129,0.024,0.0302,0.0291,0.0281,0.0269,0.0252,0.0238,0,0,0,0,0,0,-0.031,-0.0307,-0.0303,-0.0307,-0.0273,-0.0233,-0.0199,-0.0171,-0.016,-0.0135,-0.0057,-0.0033,0.0,0.0057,0.0094,0.0191,0.0231,0.0225,0.0213,0.0198,0.0185,0.0255,0.0304,0,0,0,0,0,-0.0327,-0.033,-0.0316,-0.0308,-0.0295,-0.0253,-0.0228,-0.0179,-0.0166,-0.0149,-0.0071,-0.0032,-0.0037,0.0025,0.0046,0.0089,0.0148,0.0175,0.0162,0.0152,0.0211,0.025,0.0251,0.024,0.024,0.024,0,0,-0.032,-0.0317,-0.0317,-0.0308,-0.0276,-0.0258,-0.0223,-0.0163,-0.0139,-0.012,-0.0063,-0.007,-0.0059,-0.0034,-0.0001,0.005,0.0171,0.0138,0.0131,0.0198,0.024,0.0243,0.0245,0.0233,0.0234,0.0235,0,0,-0.0296,-0.0309,-0.03,-0.0291,-0.0244,-0.0224,-0.0203,-0.0149,-0.0108,-0.0106,-0.0116,-0.0123,-0.0046,-0.0047,-0.0042,-0.0124,0.0071,-0.0066,-0.0005,0.0029,0.0034,0.004,0.0087,0.0096,-0.0032,-0.0032,-0.0032,0,-0.0287,-0.0297,-0.0284,-0.0276,-0.027,-0.021,-0.0196,-0.0163,-0.0121,-0.011,-0.0071,-0.0069,-0.0051,-0.0066,-0.0102,-0.0125,-0.0069,0.0071,0.0026,0.0032,0.0039,0.0086,0.0097,-0.0035,-0.0034,-0.0034,-0.0034,0,-0.0254,-0.0277,-0.0263,-0.0254,-0.0236,-0.021,-0.0178,-0.0129,-0.0075,-0.005,-0.0024,-0.0056,-0.0023,-0.0033,-0.0079,-0.0031,0.0002,-0.0017,0.0098,0.0041,0.009,0.0103,-0.0038,-0.0037,-0.0036,-0.0036,0,0,-0.0214,-0.0244,-0.024,-0.0263,-0.0234,-0.0215,-0.0172,-0.0139,-0.0101,-0.0028,0.0016,-0.0022,0.0029,0.0026,0.0004,0.0034,0.0077,0.0057,0.006,0.0165,0.0196,0.0092,0.0096,0.0082,0.0085,0.0086,0.0206,0,-0.0197,-0.0222,-0.0222,-0.0231,-0.0254,-0.0216,-0.0184,-0.0138,-0.0085,-0.002,0.0004,0.0026,0.0037,0.0056,0.0097,0.006,0.0116,0.005,0.0186,0.0191,0.0156,0.0108,0.0094,0.0216,0.0219,0.0221,0.0223,0,-0.019,-0.0208,-0.0243,-0.0269,-0.0262,-0.0236,-0.0184,-0.0147,-0.0065,-0.0009,0.0072,0.01,0.0148,0.0153,0.023,0.0206,0.0233,0.022,0.0224,0.0167,0.0111,0.0283,0.0247,0.0245,0.0243,0.0242,0.024,0,-0.0225,-0.024,-0.0279,-0.0293,-0.0283,-0.0255,-0.0208,-0.0137,-0.009,0.0009,0.0069,0.0156,0.0201,0.0277,0.0288,0.0286,0.0363,0.0342,0.0286,0.028,0.0362,0.0356,0.0426,0.0426,0.0425,0.0425,0.0425,0,-0.0261,-0.0297,-0.0291,-0.0322,-0.0294,-0.0269,-0.021,-0.0148,-0.0044,0.0011,0.0097,0.0144,0.0239,0.0288,0.033,0.0354,0.0419,0.032,0.0307,0.0335,0.0324,0.037,0.0362,0.0429,0.0428,0.0428,0.0427,0,-0.0318,-0.0342,-0.0385,-0.0357,-0.0336,-0.0303,-0.0198,-0.0148,-0.0046,0.0038,0.0079,0.016,0.0209,0.0282,0.0343,0.0366,0.0394,0.0383,0.0424,0.0407,0.0295,0.0283,0.0375,0.0372,0.037,0.0368,0.0366,0,-0.0357,-0.0396,-0.04,-0.039,-0.037,-0.0307,-0.0256,-0.0148,-0.0098,0.0022,0.005,0.0114,0.0166,0.0238,0.0258,0.0354,0.0336,0.0384,0.0343,0.0314,0.0292,0.0284,0.0275,0.0363,0.0362,0.0362,0.0361,0,-0.0403,-0.0415,-0.0421,-0.0418,-0.0381,-0.0329,-0.0252,-0.0205,-0.0085,-0.0014,0.0078,0.0129,0.0154,0.0195,0.0255,0.0304,0.0373,0.0361,0.0367,0.0329,0.03,0.0279,0.0274,0.0353,0.0354,0.0355,0.0356,0,-0.0411,-0.041,-0.0433,-0.0407,-0.0386,-0.0338,-0.0294,-0.0203,-0.0125,0.0029,0.002,0.0102,0.0145,0.0161,0.0201,0.0251,0.0256,0.0289,0.0298,0.0307,0.0214,0.0163,0.0187,0,0,0,0,0,-0.0406,-0.0407,-0.0408,-0.0389,-0.0376,-0.036,-0.0288,-0.0241,-0.0147,-0.006,0.0019,0.0058,0.0127,0.0113,0.0153,0.0096,0.0211,0.0133,0.0243,0.031,0.0319,0.0207,0,0,0,0,0,0,-0.0402,-0.0419,-0.0412,-0.0385,-0.0366,-0.034,-0.0296,-0.0233,-0.0174,-0.0075,-0.0041,0.0041,0.0083,0.0125,0.0149,0.0151,0.0218,0.0174,0.0173,0.0305,0.0313,0.0321,0.0208,0,0,0,0,0]},{"header":{"parameterUnit":"m.s-1","parameterCategory":2,"la1":30.2991,"la2":30.254,"lo1":-89.0895,"lo2":-89.0444,"dy":0.0017,"dx":0.0017,"nx":28,"ny":28,"refTime":"2023-08-03T21:00:00:Z","depth":"4","parameterNumber":3,"parameterNumberName":"V-component_of_CURRENTS"},"data":[0,0,0,0,0,0,0,0,0,0,0,0,0,0,0,0,0,0,0,0,0,0,0,0,0,0,0,0,0,0,0,0,0,0,0,0,0,0,0,0,0,0,0,0,0,0,0,0,0,0,0,0,0,0,0,0,0,0,-0.0113,-0.0113,0,-0.0114,-0.0114,-0.0114,-0.0206,-0.0208,-0.021,-0.0212,-0.0371,-0.0373,-0.0375,0,0,0,0,0,0,0,0,0,0,0,0,0,0.0001,-0.0002,-0.0113,-0.0113,-0.0113,-0.0114,-0.0114,-0.0114,-0.0205,-0.0208,-0.0211,-0.0213,-0.037,-0.0373,-0.0376,0,0,0,0,0,0,0,0,0,0,0,0,0,-0.0032,-0.0003,-0.0113,-0.0156,-0.016,-0.0114,-0.0114,-0.0114,-0.0205,-0.0208,-0.0211,-0.0214,-0.0369,-0.0373,-0.0376,-0.0332,0,0,-0.0386,-0.0388,0,0,0,0,0,0,0,0,-0.003,-0.0036,-0.015,-0.0153,-0.0157,-0.0161,-0.0132,-0.0194,-0.0204,-0.0191,-0.0212,-0.0216,-0.0311,-0.0319,-0.0314,-0.0339,-0.0346,-0.0387,-0.0389,-0.039,-0.0391,0,0,0,0,0,0,0,-0.0028,-0.0036,-0.0116,-0.015,-0.0154,-0.0109,-0.012,-0.0142,-0.0238,-0.0192,-0.0198,-0.0193,-0.0315,-0.031,-0.0319,-0.0349,-0.0386,-0.0389,-0.0391,-0.0393,-0.0493,-0.0494,0,0,0,0,0,0,-0.0029,-0.0035,-0.0116,-0.0116,-0.0097,-0.0109,-0.0121,-0.0158,-0.0234,-0.0247,-0.019,-0.0197,-0.0303,-0.0315,-0.0325,-0.0423,-0.039,-0.0393,-0.0395,-0.0492,-0.0493,-0.0494,0,0,0,0,0,0,-0.0028,-0.0038,-0.0116,-0.007,-0.0077,-0.0109,-0.0149,-0.0157,-0.0193,-0.023,-0.0248,-0.0223,-0.0306,-0.032,-0.0391,-0.0425,-0.0395,-0.0398,-0.0492,-0.0493,-0.0494,-0.0526,0,0,0,0,0,0,-0.0025,-0.0039,-0.0072,-0.0072,-0.0079,-0.0109,-0.0146,-0.0154,-0.0181,-0.0191,-0.0263,-0.0279,-0.031,-0.0386,-0.0394,-0.0429,-0.04,-0.0491,-0.0492,-0.0493,-0.0524,-0.0528,-0.0531,0,0,0,0,0,-0.0022,-0.0051,-0.0075,-0.0084,-0.0125,-0.0108,-0.0109,-0.0141,-0.0179,-0.0188,-0.0256,-0.0279,-0.04,-0.0389,-0.0399,-0.0435,-0.049,-0.0492,-0.0493,-0.0523,-0.0527,-0.0531,0,0,0,0,0,0,-0.0026,-0.0063,-0.0089,-0.0134,-0.013,-0.0124,-0.0127,-0.0152,-0.0204,-0.0237,-0.0287,-0.0306,-0.0383,-0.0393,-0.038,-0.0465,-0.0448,-0.0451,-0.0467,-0.0472,-0.0475,-0.0465,-0.0403,0,0,0,0,0,-0.0038,-0.0066,-0.0085,-0.0112,-0.0117,-0.0127,-0.0129,-0.0155,-0.0189,-0.0217,-0.0271,-0.033,-0.0383,-0.0419,-0.0459,-0.0498,-0.0463,-0.0526,-0.0529,-0.0532,-0.053,-0.0474,-0.0471,-0.0499,-0.0499,-0.0499,0,0,-0.0042,-0.0062,-0.0081,-0.0112,-0.0113,-0.011,-0.0139,-0.015,-0.0169,-0.0225,-0.029,-0.0349,-0.0396,-0.0456,-0.0489,-0.0479,-0.051,-0.0534,-0.0537,-0.0532,-0.0475,-0.0472,-0.0469,-0.05,-0.05,-0.0499,0,0,-0.0022,-0.0086,-0.009,-0.0096,-0.0106,-0.011,-0.0121,-0.0146,-0.0189,-0.024,-0.03,-0.0383,-0.0442,-0.0496,-0.0526,-0.0566,-0.0532,-0.0578,-0.0591,-0.0537,-0.0533,-0.053,-0.0493,-0.0486,-0.0577,-0.0577,-0.0577,0,-0.0021,-0.0049,-0.0081,-0.0079,-0.0084,-0.0114,-0.0113,-0.0141,-0.0194,-0.0241,-0.0271,-0.0403,-0.046,-0.0536,-0.0565,-0.0578,-0.053,-0.0575,-0.0539,-0.0535,-0.0531,-0.0493,-0.0485,-0.0579,-0.0579,-0.0579,-0.0578,0,-0.0001,-0.0026,-0.0022,-0.0041,-0.0051,-0.0053,-0.0092,-0.0134,-0.0195,-0.0241,-0.0349,-0.0425,-0.0503,-0.0541,-0.0574,-0.0595,-0.0567,-0.055,-0.0524,-0.053,-0.049,-0.0481,-0.0581,-0.0581,-0.058,-0.058,0,0,0.0008,-0.0004,-0.0007,-0.0012,-0.0044,-0.0044,-0.0087,-0.0136,-0.0184,-0.0271,-0.0339,-0.0459,-0.0518,-0.0554,-0.061,-0.059,-0.055,-0.056,-0.0556,-0.0516,-0.0421,-0.0451,-0.0443,-0.0505,-0.0503,-0.0502,-0.0408,0,0.0037,0.0059,0.0029,0.0034,0.0036,-0.0022,-0.005,-0.0116,-0.019,-0.0267,-0.0379,-0.0462,-0.0512,-0.0565,-0.0557,-0.0568,-0.0524,-0.0577,-0.0427,-0.0423,-0.0443,-0.0433,-0.0497,-0.0401,-0.0399,-0.0397,-0.0396,0,0.006,0.0069,0.0085,0.006,0.005,0.0042,-0.0032,-0.0073,-0.0189,-0.0256,-0.036,-0.0438,-0.0513,-0.0514,-0.0496,-0.0518,-0.0462,-0.0445,-0.0439,-0.0447,-0.0436,-0.0392,-0.0379,-0.038,-0.0382,-0.0383,-0.0384,0,0.0097,0.0098,0.0114,0.0104,0.0075,0.0047,0.0015,-0.0083,-0.0132,-0.0256,-0.0294,-0.0397,-0.0444,-0.0404,-0.0409,-0.0431,-0.0333,-0.0353,-0.0316,-0.0318,-0.0303,-0.0307,-0.0259,-0.0259,-0.026,-0.026,-0.026,0,0.0125,0.0127,0.0132,0.0134,0.0118,0.0075,0.0028,-0.0033,-0.0115,-0.0172,-0.0284,-0.0329,-0.0402,-0.0386,-0.0367,-0.0324,-0.0284,-0.0314,-0.0291,-0.0323,-0.033,-0.0297,-0.0302,-0.0256,-0.0257,-0.0258,-0.0258,0,0.013,0.015,0.0158,0.0147,0.0137,0.0108,0.0053,0.0012,-0.005,-0.0115,-0.0148,-0.026,-0.0275,-0.0299,-0.0257,-0.027,-0.0224,-0.0184,-0.0218,-0.0198,-0.0259,-0.0268,-0.0179,-0.018,-0.018,-0.018,-0.018,0,0.0125,0.0144,0.0164,0.0165,0.0151,0.0116,0.0089,0.0031,-0.0007,-0.0071,-0.0097,-0.0143,-0.0212,-0.0181,-0.0214,-0.0177,-0.0163,-0.0137,-0.0224,-0.0263,-0.0249,-0.0257,-0.0265,-0.018,-0.018,-0.018,-0.018,0,0.0097,0.012,0.0124,0.0149,0.0139,0.0123,0.0089,0.0073,0.0006,-0.0004,-0.0059,-0.0113,-0.0133,-0.0198,-0.0153,-0.0124,-0.0184,-0.0139,-0.014,-0.0222,-0.0262,-0.025,-0.0258,-0.0181,-0.0181,-0.0181,-0.0181,0,0.006,0.006,0.0095,0.0105,0.0109,0.0101,0.0089,0.0059,0.0028,-0.002,-0.003,-0.0079,-0.012,-0.0163,-0.012,-0.0119,-0.0151,-0.0164,-0.0165,-0.0164,-0.0215,-0.0268,-0.0158,0,0,0,0,0,0.0013,0.0031,0.0046,0.0056,0.0069,0.0079,0.0071,0.006,0.0037,0.0009,-0.0012,-0.0032,-0.008,-0.0121,-0.0123,-0.0144,-0.0153,-0.0151,-0.0168,-0.0184,-0.0183,-0.0251,0,0,0,0,0,0,-0.0011,0.0004,0.0032,0.0022,0.0025,0.0022,0.0023,0.0014,-0.0005,-0.0018,-0.004,-0.0038,-0.0078,-0.0064,-0.0124,-0.0129,-0.0145,-0.0163,-0.0163,-0.0184,-0.0183,-0.0183,-0.0253,0,0,0,0,0]}]]